Time,TemperatureF,DewpointF,PressureIn,WindDirection,WindDirectionDegrees,WindSpeedMPH,WindSpeedGustMPH,Humidity,HourlyPrecipIn,Conditions,Clouds,dailyrainin,SolarRadiationWatts/m^2,SoftwareType,DateUTC
2013-04-21 00:01:00,54.0,-1.0,-100.00,NNW,348,4.0,6.0,10,0.00,,,0.00,0.000000,,2013-04-21 06:01:00,
2013-04-21 00:32:00,54.0,-1.0,-100.00,NNW,348,4.0,6.0,10,0.00,,,0.00,0.000000,,2013-04-21 06:32:00,
2013-04-21 00:42:00,54.0,-1.0,-100.00,NNW,348,4.0,6.0,10,0.00,,,0.00,0.000000,,2013-04-21 06:42:00,
2013-04-21 00:52:00,54.0,-1.0,-100.00,NNW,348,4.0,6.0,10,0.00,,,0.00,0.000000,,2013-04-21 06:52:00,
2013-04-21 01:01:00,55.0,1.0,-100.00,NNW,338,5.0,8.0,11,0.00,,,0.00,0.000000,,2013-04-21 07:01:00,
2013-04-21 01:32:00,55.0,1.0,-100.00,NNW,338,5.0,8.0,11,0.00,,,0.00,0.000000,,2013-04-21 07:32:00,
2013-04-21 01:42:00,55.0,1.0,-100.00,NNW,338,5.0,8.0,11,0.00,,,0.00,0.000000,,2013-04-21 07:42:00,
2013-04-21 01:52:00,55.0,1.0,-100.00,NNW,338,5.0,8.0,11,0.00,,,0.00,0.000000,,2013-04-21 07:52:00,
2013-04-21 02:01:00,55.0,3.0,-100.00,NNE,28,11.0,15.0,12,0.00,,,0.00,0.000000,,2013-04-21 08:01:00,
2013-04-21 02:32:00,55.0,3.0,-100.00,NNE,28,11.0,15.0,12,0.00,,,0.00,0.000000,,2013-04-21 08:32:00,
2013-04-21 02:42:00,55.0,3.0,-100.00,NNE,28,11.0,15.0,12,0.00,,,0.00,0.000000,,2013-04-21 08:42:00,
2013-04-21 02:52:00,55.0,3.0,-100.00,NNE,28,11.0,15.0,12,0.00,,,0.00,0.000000,,2013-04-21 08:52:00,
2013-04-21 03:01:00,55.0,5.0,-100.00,NNE,15,13.0,20.0,13,0.00,,,0.00,0.000000,,2013-04-21 09:01:00,
2013-04-21 03:22:00,55.0,5.0,-100.00,NNE,15,13.0,20.0,13,0.00,,,0.00,0.000000,,2013-04-21 09:22:00,
2013-04-21 03:33:00,55.0,5.0,-100.00,NNE,15,13.0,20.0,13,0.00,,,0.00,0.000000,,2013-04-21 09:33:00,
2013-04-21 03:43:00,55.0,5.0,-100.00,NNE,15,13.0,20.0,13,0.00,,,0.00,0.000000,,2013-04-21 09:43:00,
2013-04-21 03:53:00,55.0,5.0,-100.00,NNE,15,13.0,20.0,13,0.00,,,0.00,0.000000,,2013-04-21 09:53:00,
2013-04-21 04:01:00,54.0,10.0,-100.00,NNE,19,13.0,20.0,17,0.00,,,0.00,0.000000,,2013-04-21 10:01:00,
2013-04-21 04:22:00,54.0,10.0,-100.00,NNE,19,13.0,20.0,17,0.00,,,0.00,0.000000,,2013-04-21 10:22:00,
2013-04-21 04:33:00,54.0,10.0,-100.00,NNE,19,13.0,20.0,17,0.00,,,0.00,0.000000,,2013-04-21 10:33:00,
2013-04-21 04:42:00,54.0,10.0,-100.00,NNE,19,13.0,20.0,17,0.00,,,0.00,0.000000,,2013-04-21 10:42:00,
2013-04-21 04:52:00,54.0,10.0,-100.00,NNE,19,13.0,20.0,17,0.00,,,0.00,0.000000,,2013-04-21 10:52:00,
2013-04-21 05:01:00,52.0,14.0,-100.00,NNE,29,11.0,19.0,22,0.00,,,0.00,0.000000,,2013-04-21 11:01:00,
2013-04-21 05:34:00,52.0,14.0,-100.00,NNE,29,11.0,19.0,22,0.00,,,0.00,0.000000,,2013-04-21 11:34:00,
2013-04-21 05:42:00,52.0,14.0,-100.00,NNE,29,11.0,19.0,22,0.00,,,0.00,0.000000,,2013-04-21 11:42:00,
2013-04-21 05:52:00,52.0,14.0,-100.00,NNE,29,11.0,19.0,22,0.00,,,0.00,0.000000,,2013-04-21 11:52:00,
2013-04-21 06:01:00,52.0,15.0,-100.00,NNE,27,12.0,20.0,23,0.00,,,0.00,0.000000,,2013-04-21 12:01:00,
2013-04-21 06:22:00,52.0,15.0,-100.00,NNE,27,12.0,20.0,23,0.00,,,0.00,0.000000,,2013-04-21 12:22:00,
2013-04-21 06:32:00,52.0,15.0,-100.00,NNE,27,12.0,20.0,23,0.00,,,0.00,0.000000,,2013-04-21 12:32:00,
2013-04-21 06:42:00,52.0,15.0,-100.00,NNE,27,12.0,20.0,23,0.00,,,0.00,0.000000,,2013-04-21 12:42:00,
2013-04-21 06:52:00,52.0,15.0,-100.00,NNE,27,12.0,20.0,23,0.00,,,0.00,0.000000,,2013-04-21 12:52:00,
2013-04-21 07:01:00,51.0,16.0,-100.00,NNE,28,10.0,17.0,24,0.00,,,0.00,7.000000,,2013-04-21 13:01:00,
2013-04-21 07:32:00,51.0,16.0,-100.00,NNE,28,10.0,17.0,24,0.00,,,0.00,7.000000,,2013-04-21 13:32:00,
2013-04-21 07:42:00,51.0,16.0,-100.00,NNE,28,10.0,17.0,24,0.00,,,0.00,7.000000,,2013-04-21 13:42:00,
2013-04-21 07:52:00,51.0,16.0,-100.00,NNE,28,10.0,17.0,24,0.00,,,0.00,7.000000,,2013-04-21 13:52:00,
2013-04-21 08:01:00,56.0,18.0,-100.00,North,5,6.0,13.0,22,0.00,,,0.00,146.000000,,2013-04-21 14:01:00,
2013-04-21 08:22:00,56.0,18.0,-100.00,North,5,6.0,13.0,22,0.00,,,0.00,146.000000,,2013-04-21 14:22:00,
2013-04-21 08:32:00,56.0,18.0,-100.00,North,5,6.0,13.0,22,0.00,,,0.00,146.000000,,2013-04-21 14:32:00,
2013-04-21 08:42:00,56.0,18.0,-100.00,North,5,6.0,13.0,22,0.00,,,0.00,146.000000,,2013-04-21 14:42:00,
2013-04-21 08:52:00,56.0,18.0,-100.00,North,5,6.0,13.0,22,0.00,,,0.00,146.000000,,2013-04-21 14:52:00,
2013-04-21 09:01:00,60.0,16.0,-100.00,NW,320,5.0,10.0,18,0.00,,,0.00,419.000000,,2013-04-21 15:01:00,
2013-04-21 09:22:00,60.0,16.0,-100.00,NW,320,5.0,10.0,18,0.00,,,0.00,419.000000,,2013-04-21 15:22:00,
2013-04-21 09:33:00,60.0,16.0,-100.00,NW,320,5.0,10.0,18,0.00,,,0.00,419.000000,,2013-04-21 15:33:00,
2013-04-21 09:43:00,60.0,16.0,-100.00,NW,320,5.0,10.0,18,0.00,,,0.00,419.000000,,2013-04-21 15:43:00,
2013-04-21 09:53:00,60.0,16.0,-100.00,NW,320,5.0,10.0,18,0.00,,,0.00,419.000000,,2013-04-21 15:53:00,
2013-04-21 10:01:00,64.0,17.0,-100.00,NW,317,5.0,10.0,16,0.00,,,0.00,646.000000,,2013-04-21 16:01:00,
2013-04-21 10:23:00,64.0,17.0,-100.00,NW,317,5.0,10.0,16,0.00,,,0.00,646.000000,,2013-04-21 16:23:00,
2013-04-21 10:33:00,64.0,17.0,-100.00,NW,317,5.0,10.0,16,0.00,,,0.00,646.000000,,2013-04-21 16:33:00,
2013-04-21 10:42:00,64.0,17.0,-100.00,NW,317,5.0,10.0,16,0.00,,,0.00,646.000000,,2013-04-21 16:42:00,
2013-04-21 10:53:00,64.0,17.0,-100.00,NW,317,5.0,10.0,16,0.00,,,0.00,646.000000,,2013-04-21 16:53:00,
2013-04-21 11:01:00,65.0,13.0,-100.00,WSW,256,7.0,20.0,13,0.00,,,0.00,839.000000,,2013-04-21 17:01:00,
2013-04-21 11:32:00,65.0,13.0,-100.00,WSW,256,7.0,20.0,13,0.00,,,0.00,839.000000,,2013-04-21 17:32:00,
2013-04-21 11:42:00,65.0,13.0,-100.00,WSW,256,7.0,20.0,13,0.00,,,0.00,839.000000,,2013-04-21 17:42:00,
2013-04-21 11:52:00,65.0,13.0,-100.00,WSW,256,7.0,20.0,13,0.00,,,0.00,839.000000,,2013-04-21 17:52:00,
2013-04-21 12:01:00,68.0,14.0,-100.00,WNW,303,8.0,15.0,12,0.00,,,0.00,974.000000,,2013-04-21 18:01:00,
2013-04-21 12:22:00,68.0,14.0,-100.00,WNW,303,8.0,15.0,12,0.00,,,0.00,974.000000,,2013-04-21 18:22:00,
2013-04-21 12:33:00,68.0,14.0,-100.00,WNW,303,8.0,15.0,12,0.00,,,0.00,974.000000,,2013-04-21 18:33:00,
2013-04-21 12:42:00,68.0,14.0,-100.00,WNW,303,8.0,15.0,12,0.00,,,0.00,974.000000,,2013-04-21 18:42:00,
2013-04-21 12:52:00,68.0,14.0,-100.00,WNW,303,8.0,15.0,12,0.00,,,0.00,974.000000,,2013-04-21 18:52:00,
2013-04-21 13:01:00,69.0,12.0,-100.00,WSW,258,10.0,18.0,11,0.00,,,0.00,1039.000000,,2013-04-21 19:01:00,
2013-04-21 13:32:00,69.0,12.0,-100.00,WSW,258,10.0,18.0,11,0.00,,,0.00,1039.000000,,2013-04-21 19:32:00,
2013-04-21 13:43:00,69.0,12.0,-100.00,WSW,258,10.0,18.0,11,0.00,,,0.00,1039.000000,,2013-04-21 19:43:00,
2013-04-21 13:52:00,69.0,12.0,-100.00,WSW,258,10.0,18.0,11,0.00,,,0.00,1039.000000,,2013-04-21 19:52:00,
2013-04-21 14:01:00,71.0,12.0,-100.00,WNW,286,11.0,22.0,10,0.00,,,0.00,1038.000000,,2013-04-21 20:01:00,
2013-04-21 14:32:00,71.0,12.0,-100.00,WNW,286,11.0,22.0,10,0.00,,,0.00,1038.000000,,2013-04-21 20:32:00,
2013-04-21 14:42:00,71.0,12.0,-100.00,WNW,286,11.0,22.0,10,0.00,,,0.00,1038.000000,,2013-04-21 20:42:00,
2013-04-21 14:52:00,71.0,12.0,-100.00,WNW,286,11.0,22.0,10,0.00,,,0.00,1038.000000,,2013-04-21 20:52:00,
2013-04-21 15:01:00,73.0,11.0,-100.00,West,263,12.0,18.0,9,0.00,,,0.00,972.000000,,2013-04-21 21:01:00,
2013-04-21 15:22:00,73.0,11.0,-100.00,West,263,12.0,18.0,9,0.00,,,0.00,972.000000,,2013-04-21 21:22:00,
2013-04-21 15:33:00,73.0,11.0,-100.00,West,263,12.0,18.0,9,0.00,,,0.00,972.000000,,2013-04-21 21:33:00,
2013-04-21 15:43:00,73.0,11.0,-100.00,West,263,12.0,18.0,9,0.00,,,0.00,972.000000,,2013-04-21 21:43:00,
2013-04-21 15:53:00,73.0,11.0,-100.00,West,263,12.0,18.0,9,0.00,,,0.00,972.000000,,2013-04-21 21:53:00,
2013-04-21 16:01:00,74.0,12.0,-100.00,SW,224,7.0,19.0,9,0.00,,,0.00,839.000000,,2013-04-21 22:01:00,
2013-04-21 16:22:00,74.0,12.0,-100.00,SW,224,7.0,19.0,9,0.00,,,0.00,839.000000,,2013-04-21 22:22:00,
2013-04-21 16:33:00,74.0,12.0,-100.00,SW,224,7.0,19.0,9,0.00,,,0.00,839.000000,,2013-04-21 22:33:00,
2013-04-21 16:43:00,74.0,12.0,-100.00,SW,224,7.0,19.0,9,0.00,,,0.00,839.000000,,2013-04-21 22:43:00,
2013-04-21 16:52:00,74.0,12.0,-100.00,SW,224,7.0,19.0,9,0.00,,,0.00,839.000000,,2013-04-21 22:52:00,
2013-04-21 17:01:00,74.0,9.0,-100.00,West,273,9.0,19.0,8,0.00,,,0.00,655.000000,,2013-04-21 23:01:00,
2013-04-21 17:32:00,74.0,9.0,-100.00,West,273,9.0,19.0,8,0.00,,,0.00,655.000000,,2013-04-21 23:32:00,
2013-04-21 17:43:00,74.0,9.0,-100.00,West,273,9.0,19.0,8,0.00,,,0.00,655.000000,,2013-04-21 23:43:00,
2013-04-21 17:52:00,74.0,9.0,-100.00,West,273,9.0,19.0,8,0.00,,,0.00,655.000000,,2013-04-21 23:52:00,
2013-04-21 18:01:00,73.0,8.0,-100.00,SSW,199,11.0,24.0,8,0.00,,,0.00,435.000000,,2013-04-22 00:01:00,
2013-04-21 18:22:00,73.0,8.0,-100.00,SSW,199,11.0,24.0,8,0.00,,,0.00,435.000000,,2013-04-22 00:22:00,
2013-04-21 18:32:00,73.0,8.0,-100.00,SSW,199,11.0,24.0,8,0.00,,,0.00,435.000000,,2013-04-22 00:32:00,
2013-04-21 18:42:00,73.0,8.0,-100.00,SSW,199,11.0,24.0,8,0.00,,,0.00,435.000000,,2013-04-22 00:42:00,
2013-04-21 18:52:00,73.0,8.0,-100.00,SSW,199,11.0,24.0,8,0.00,,,0.00,435.000000,,2013-04-22 00:52:00,
2013-04-21 19:01:00,70.0,3.0,-100.00,SSW,194,8.0,31.0,7,0.00,,,0.00,191.000000,,2013-04-22 01:01:00,
2013-04-21 19:32:00,70.0,3.0,-100.00,SSW,194,8.0,31.0,7,0.00,,,0.00,191.000000,,2013-04-22 01:32:00,
2013-04-21 19:42:00,70.0,3.0,-100.00,SSW,194,8.0,31.0,7,0.00,,,0.00,191.000000,,2013-04-22 01:42:00,
2013-04-21 19:52:00,70.0,3.0,-100.00,SSW,194,8.0,31.0,7,0.00,,,0.00,191.000000,,2013-04-22 01:52:00,
2013-04-21 20:01:00,67.0,6.0,-100.00,NNE,24,4.0,19.0,9,0.00,,,0.00,13.000000,,2013-04-22 02:01:00,
2013-04-21 20:32:00,67.0,6.0,-100.00,NNE,24,4.0,19.0,9,0.00,,,0.00,13.000000,,2013-04-22 02:32:00,
2013-04-21 20:42:00,67.0,6.0,-100.00,NNE,24,4.0,19.0,9,0.00,,,0.00,13.000000,,2013-04-22 02:42:00,
2013-04-21 20:52:00,67.0,6.0,-100.00,NNE,24,4.0,19.0,9,0.00,,,0.00,13.000000,,2013-04-22 02:52:00,
2013-04-21 21:01:00,65.0,5.0,-100.00,ENE,61,5.0,15.0,9,0.00,,,0.00,0.000000,,2013-04-22 03:01:00,
2013-04-21 21:33:00,65.0,5.0,-100.00,ENE,61,5.0,15.0,9,0.00,,,0.00,0.000000,,2013-04-22 03:33:00,
2013-04-21 21:43:00,65.0,5.0,-100.00,ENE,61,5.0,15.0,9,0.00,,,0.00,0.000000,,2013-04-22 03:43:00,
2013-04-21 21:52:00,65.0,5.0,-100.00,ENE,61,5.0,15.0,9,0.00,,,0.00,0.000000,,2013-04-22 03:52:00,
2013-04-21 22:01:00,64.0,4.0,-100.00,NE,35,6.0,17.0,9,0.00,,,0.00,0.000000,,2013-04-22 04:01:00,
2013-04-21 22:23:00,64.0,4.0,-100.00,NE,35,6.0,17.0,9,0.00,,,0.00,0.000000,,2013-04-22 04:23:00,
2013-04-21 22:33:00,64.0,4.0,-100.00,NE,35,6.0,17.0,9,0.00,,,0.00,0.000000,,2013-04-22 04:33:00,
2013-04-21 22:43:00,64.0,4.0,-100.00,NE,35,6.0,17.0,9,0.00,,,0.00,0.000000,,2013-04-22 04:43:00,
2013-04-21 22:53:00,64.0,4.0,-100.00,NE,35,6.0,17.0,9,0.00,,,0.00,0.000000,,2013-04-22 04:53:00,
2013-04-21 23:01:00,63.0,3.0,-100.00,West,267,7.0,15.0,9,0.00,,,0.00,0.000000,,2013-04-22 05:01:00,
2013-04-21 23:23:00,63.0,3.0,-100.00,West,267,7.0,15.0,9,0.00,,,0.00,0.000000,,2013-04-22 05:23:00,
2013-04-21 23:33:00,63.0,3.0,-100.00,West,267,7.0,15.0,9,0.00,,,0.00,0.000000,,2013-04-22 05:33:00,
2013-04-21 23:42:00,63.0,3.0,-100.00,West,267,7.0,15.0,9,0.00,,,0.00,0.000000,,2013-04-22 05:42:00,
2013-04-21 23:52:00,63.0,3.0,-100.00,West,267,7.0,15.0,9,0.00,,,0.00,0.000000,,2013-04-22 05:52:00,